Temp
54 55 51 50 49 51 51 53 53 53 52 54 54 54 55 57 56 55 55 56 56 57 57 56 55 55 56 57 57 56 57 57 57 57 57 58 57 57 59 60 61 62 62 61 61 57 56 55 59 65 65 61 62 64 65 66 66 66 65 65 67 67 67
53 53 53 54 52 52 51 52 53 52 52 52 53 54 55 56 57 55 55 55 55 55 56 55 55 55 55 55 55 55 54 55 56 57 56 56 57 56 57 57 59 59 60 61 62 61 57 56 56 58 60 63 64 64 62 63 65 65 66 66 67 68 67
53 50 51 50 50 50 52 51 51 52 52 52 52 53 54 54 54 55 54 54 54 55 55 53 53 53 53 53 53 54 54 54 54 55 54 55 56 56 56 56 56 56 57 59 59 59 59 59 55 57 59 58 58 61 64 65 67 66 65 65 65 67 67
50 51 51 50 50 50 52 51 51 51 51 51 53 53 53 54 54 55 54 54 55 56 54 53 53 53 53 53 53 53 53 53 53 53 53 54 54 54 54 55 55 56 55 55 56 57 57 57 56 57 59 61 60 59 64 66 65 67 68 67 66 66 67
52 53 53 52 51 52 51 51 49 50 51 51 51 52 52 53 54 53 54 53 53 52 53 53 53 53 52 52 52 53 52 52 53 53 52 52 53 53 53 54 54 55 55 55 56 57 56 56 56 56 56 59 59 61 64 63 66 66 67 68 68 67 66
53 54 54 53 52 53 51 51 50 51 50 53 51 53 52 51 53 51 51 52 52 53 52 52 52 52 52 52 52 51 52 52 51 52 51 51 52 52 52 53 53 54 54 55 56 56 56 57 57 55 58 60 56 58 61 62 61 65 68 68 68 67 68
53 53 53 54 52 53 52 53 52 53 52 53 52 52 52 52 52 53 53 52 52 52 52 52 52 52 52 52 51 51 51 51 51 51 51 51 51 51 52 52 52 53 53 54 55 55 54 54 54 53 53 56 58 58 60 59 61 62 62 65 68 69 68
54 54 53 54 53 52 51 53 52 51 53 52 53 53 52 52 51 51 52 51 51 51 51 52 52 51 51 52 52 51 51 50 50 51 50 51 51 51 51 51 52 52 52 53 54 54 54 54 53 53 53 51 53 57 57 60 59 60 63 63 68 69 68
56 55 54 54 53 53 53 53 53 52 53 52 51 52 51 52 51 51 52 50 50 50 51 51 50 51 51 51 50 50 50 52 50 50 50 50 50 50 50 50 51 51 52 53 53 54 54 54 54 54 54 53 50 50 54 55 57 58 60 62 62 64 66
54 54 54 53 53 52 53 53 53 53 51 51 52 52 52 50 51 51 51 50 50 50 50 50 50 50 50 50 50 49 49 49 51 50 49 50 50 50 50 50 51 51 52 52 52 53 53 53 53 54 54 53 52 49 49 51 54 56 59 61 61 62 64
55 55 54 53 52 52 51 52 51 51 51 52 53 53 52 51 51 53 50 50 49 50 50 50 50 49 49 49 49 49 48 49 49 49 50 50 50 51 51 50 50 50 51 51 51 52 52 52 52 53 53 53 53 50 50 48 50 56 56 59 60 61 63
54 55 54 54 52 52 52 52 52 52 51 50 52 52 50 51 51 49 50 49 49 49 49 49 49 48 48 48 49 48 48 48 48 49 49 50 50 50 49 49 49 50 50 50 50 51 51 52 52 53 52 52 52 52 51 51 47 55 60 57 58 61 61
54 54 54 53 52 53 53 52 52 50 51 52 51 52 51 51 51 50 49 50 49 49 48 47 47 47 47 47 48 48 47 47 48 48 48 48 49 49 48 48 49 49 49 50 50 50 50 51 51 52 52 52 51 51 51 50 48 49 57 57 58 60 62
53 53 53 53 54 53 53 53 52 53 51 51 51 51 51 51 50 50 49 50 50 49 47 46 47 48 48 47 47 47 47 47 48 47 48 47 48 48 48 48 48 49 49 48 49 50 50 50 50 50 51 51 50 51 50 50 48 49 54 58 58 58 60
54 53 53 52 53 53 52 52 52 51 52 51 51 51 51 50 50 49 49 48 47 47 47 47 47 48 48 47 47 48 47 47 47 47 46 47 47 48 47 47 47 48 49 48 48 49 50 49 50 50 50 50 50 50 52 49 48 47 47 53 54 57 57
53 53 53 52 52 52 52 51 52 52 52 50 50 51 50 50 49 49 48 46 46 47 47 47 47 48 46 46 47 46 46 46 46 46 46 46 46 47 46 47 47 48 48 48 48 49 49 49 50 49 49 50 49 49 50 51 49 46 47 49 53 53 55
53 53 53 53 53 52 52 51 52 52 52 50 51 50 50 49 49 48 48 46 46 46 46 47 46 46 47 47 47 46 46 46 45 46 45 46 46 46 46 46 47 47 48 48 48 48 49 50 50 50 50 50 50 50 50 50 50 48 48 47 50 52 53
53 53 53 53 53 52 51 51 52 52 50 50 50 49 49 49 48 48 48 47 46 46 47 47 47 46 45 45 46 46 45 45 45 45 45 45 47 47 46 46 47 48 48 48 49 49 50 49 51 51 50 51 51 51 51 51 50 50 48 47 48 50 52
53 53 53 52 52 52 52 51 51 51 52 51 49 50 49 48 50 48 47 47 47 47 46 46 46 46 45 45 45 44 44 45 45 45 46 46 46 46 46 47 47 48 48 48 48 49 49 49 50 50 50 51 51 51 50 50 50 49 49 48 48 47 50
53 52 52 52 52 52 52 51 51 51 51 51 50 49 48 48 48 48 47 47 47 47 46 45 45 44 44 43 44 44 44 44 45 45 45 46 46 46 46 47 47 47 47 48 47 47 48 48 48 48 49 49 50 49 49 49 49 49 48 47 48 48 48
53 53 53 53 52 51 51 51 52 51 51 50 50 49 48 48 47 48 47 48 47 47 45 44 42 42 43 43 45 44 44 45 45 44 45 45 45 46 46 46 47 47 47 47 47 47 47 47 47 47 48 48 48 47 47 47 47 47 47 46 46 46 47
52 52 52 52 51 52 51 52 52 51 51 50 50 49 49 48 46 46 46 46 45 45 44 44 44 43 43 44 43 44 44 44 43 43 44 44 44 45 45 45 46 46 48 48 47 47 48 47 47 46 46 47 46 46 46 46 46 46 46 46 45 47 46
52 52 52 52 52 53 52 51 51 51 50 50 49 48 48 48 48 47 45 44 44 45 44 44 47 45 45 46 44 43 43 43 43 43 43 43 43 44 44 44 45 47 47 47 46 45 44 44 45 47 47 47 46 45 45 44 45 45 45 44 45 45 44
51 51 52 52 52 51 50 50 51 50 49 49 48 48 48 47 46 46 45 45 44 44 44 45 44 41 42 42 43 42 42 42 42 42 42 42 42 43 44 44 44 45 46 46 46 44 43 43 43 43 43 44 45 46 44 43 43 44 44 44 45 45 44
50 51 51 51 50 50 49 49 48 48 47 47 47 47 47 46 45 44 44 44 44 44 44 45 41 41 41 41 42 44 42 41 42 41 41 41 42 42 42 42 43 44 44 45 45 45 45 43 42 42 42 41 41 41 42 44 44 43 43 42 43 44 45
50 49 49 50 50 50 49 49 49 48 47 47 46 46 46 45 44 44 44 44 43 44 44 43 41 41 40 40 40 41 41 41 41 41 41 41 41 41 41 42 42 43 43 44 46 46 45 45 43 42 42 42 42 42 40 39 41 44 45 43 42 42 44
49 49 49 49 49 49 49 48 46 46 46 45 45 44 44 44 44 43 44 44 44 43 43 42 40 40 40 40 39 40 41 40 40 40 40 40 41 41 41 41 41 41 42 43 43 43 43 43 43 44 44 44 44 44 42 41 40 39 42 44 44 42 45
48 48 49 49 49 49 49 47 47 46 45 45 44 43 43 44 44 44 44 43 42 42 42 42 40 40 39 40 39 40 40 39 39 39 40 40 40 41 41 41 41 41 41 41 42 42 42 42 42 42 42 42 43 44 44 45 45 45 45 45 45 45 45
48 48 48 49 48 48 47 48 46 45 45 44 44 44 44 44 44 43 42 41 42 41 40 39 38 39 39 39 39 41 39 38 38 39 39 40 40 41 41 41 40 40 41 41 41 40 41 42 42 41 41 41 42 43 43 44 44 44 46 46 46 46 47
48 48 49 48 48 48 47 46 44 44 43 43 42 43 43 43 44 42 40 40 41 40 39 39 38 39 39 39 39 39 38 38 38 37 38 39 40 40 40 41 41 40 40 41 41 39 39 40 41 40 40 40 41 41 42 44 43 42 41 41 42 42 42
48 49 48 48 48 46 45 45 43 44 43 42 43 44 43 41 40 41 41 39 40 40 39 38 39 39 39 39 40 39 38 37 37 37 37 38 39 39 40 41 43 42 41 41 40 39 38 40 40 40 39 39 39 39 40 42 43 43 42 42 41 41 41
49 49 48 48 46 44 43 43 42 43 42 43 43 41 41 39 37 38 40 40 42 40 37 39 40 38 38 38 40 39 38 37 36 36 37 38 38 38 39 40 42 42 42 41 39 39 38 40 40 39 39 38 37 37 39 41 41 41 42 42 43 44 43
49 49 48 46 45 43 43 42 42 43 42 42 41 39 39 39 39 38 38 39 40 40 38 37 39 38 39 39 39 40 39 37 36 37 38 38 38 39 39 40 41 39 38 38 38 38 38 38 39 40 39 38 36 36 40 40 41 41 41 42 42 43 43
49 49 49 46 45 44 44 43 43 43 41 40 40 39 38 37 38 38 37 37 37 37 37 37 37 38 38 39 39 39 38 37 37 37 37 37 37 37 38 39 40 40 38 38 38 38 38 38 38 39 39 38 38 40 40 40 40 40 40 40 40 41 41
46 45 44 44 43 44 43 44 43 42 40 39 39 38 37 37 37 37 37 35 36 35 36 40 37 38 38 38 38 39 38 38 38 38 36 37 37 37 37 38 39 39 38 38 37 37 37 37 37 39 38 38 38 37 39 40 40 39 39 39 39 39 40
45 44 43 43 42 41 41 42 41 40 39 38 38 38 37 37 36 37 36 35 35 35 34 36 39 38 38 38 38 38 38 38 37 38 36 35 35 36 37 38 38 38 37 37 37 37 37 37 37 37 36 36 36 36 37 38 38 37 37 37 37 37 38
44 43 43 43 42 39 39 39 38 39 39 39 38 37 36 35 35 35 36 37 36 36 34 33 35 36 37 37 37 38 37 37 37 38 38 36 36 37 37 37 37 36 36 36 36 36 36 36 36 36 36 36 36 36 37 36 36 36 35 35 35 35 36
MSLP
1017.38 1017.34 1017.74 1018.10 1018.38 1018.42 1018.54 1018.66 1018.78 1018.94 1019.02 1018.98 1018.98 1019.06 1019.14 1019.18 1019.34 1019.58 1019.74 1019.90 1019.98 1020.10 1020.06 1020.22 1020.30 1020.34 1020.30 1020.30 1020.30 1020.30 1020.22 1020.26 1020.30 1020.30 1020.50 1020.42 1020.38 1020.50 1020.30 1020.18 1020.10 1020.06 1020.10 1020.18 1020.30 1020.62 1020.70 1020.82 1019.94 1018.98 1018.94 1018.94 1018.94 1018.90 1018.86 1018.90 1018.94 1018.98 1019.02 1019.02 1018.98 1018.98 1018.98
1017.66 1017.66 1017.94 1018.14 1018.34 1018.46 1018.54 1018.78 1018.90 1018.98 1019.06 1019.14 1019.14 1019.14 1019.22 1019.30 1019.42 1019.66 1019.82 1019.98 1020.14 1020.26 1020.30 1020.42 1020.50 1020.46 1020.50 1020.54 1020.58 1020.58 1020.66 1020.66 1020.66 1020.70 1020.74 1020.90 1020.78 1020.86 1020.70 1020.58 1020.38 1020.38 1020.22 1020.10 1020.10 1020.18 1020.58 1020.78 1020.42 1020.10 1019.54 1018.94 1018.86 1018.82 1018.78 1018.78 1018.74 1018.70 1018.70 1018.70 1018.70 1018.66 1018.70
1017.90 1018.02 1018.06 1018.14 1018.34 1018.46 1018.54 1018.78 1018.94 1019.02 1019.10 1019.18 1019.26 1019.34 1019.38 1019.46 1019.54 1019.66 1019.90 1020.06 1020.26 1020.38 1020.42 1020.54 1020.58 1020.62 1020.70 1020.78 1020.86 1020.90 1020.94 1020.94 1021.02 1020.98 1021.14 1021.22 1021.18 1021.18 1021.10 1021.02 1020.98 1020.78 1020.46 1020.38 1020.38 1020.54 1020.38 1020.30 1020.42 1020.22 1019.94 1019.94 1019.82 1018.98 1018.66 1018.66 1018.58 1018.46 1018.46 1018.46 1018.46 1018.42 1018.42
1017.94 1017.90 1017.94 1018.14 1018.34 1018.42 1018.46 1018.74 1018.90 1019.06 1019.18 1019.30 1019.38 1019.50 1019.58 1019.62 1019.70 1019.78 1019.94 1020.14 1020.30 1020.42 1020.58 1020.62 1020.70 1020.74 1020.86 1020.94 1021.06 1021.14 1021.14 1021.18 1021.26 1021.30 1021.30 1021.34 1021.38 1021.34 1021.38 1021.42 1021.42 1021.30 1021.22 1021.14 1021.10 1020.90 1020.82 1020.66 1020.50 1020.26 1020.06 1019.90 1019.90 1019.54 1018.78 1018.58 1018.54 1018.34 1018.26 1018.22 1018.26 1018.18 1018.14
1017.74 1017.78 1017.66 1017.74 1018.02 1018.10 1018.34 1018.58 1018.94 1019.10 1019.22 1019.38 1019.46 1019.58 1019.70 1019.74 1019.78 1019.98 1020.10 1020.18 1020.30 1020.42 1020.54 1020.70 1020.86 1020.94 1021.02 1021.10 1021.22 1021.30 1021.42 1021.46 1021.46 1021.46 1021.54 1021.54 1021.54 1021.54 1021.58 1021.58 1021.66 1021.66 1021.66 1021.66 1021.50 1021.26 1021.02 1020.82 1020.70 1020.46 1020.30 1019.98 1019.70 1019.38 1018.90 1018.78 1018.42 1018.30 1018.14 1018.06 1017.86 1017.86 1017.86
1017.66 1017.66 1017.62 1017.70 1017.90 1017.94 1018.30 1018.58 1018.82 1018.94 1019.18 1019.26 1019.46 1019.58 1019.74 1019.78 1019.86 1020.06 1020.22 1020.30 1020.50 1020.62 1020.78 1020.82 1020.98 1021.02 1021.10 1021.22 1021.34 1021.46 1021.54 1021.54 1021.58 1021.58 1021.62 1021.70 1021.66 1021.70 1021.78 1021.78 1021.74 1021.70 1021.78 1021.78 1021.66 1021.54 1021.34 1021.06 1020.74 1020.58 1020.14 1019.94 1020.02 1019.54 1019.02 1018.86 1018.70 1018.18 1017.90 1017.74 1017.62 1017.58 1017.58
1017.58 1017.66 1017.66 1017.66 1017.86 1017.90 1018.14 1018.26 1018.50 1018.66 1018.86 1018.94 1019.26 1019.38 1019.58 1019.78 1019.90 1019.98 1020.18 1020.38 1020.50 1020.70 1020.82 1020.94 1021.06 1021.18 1021.26 1021.38 1021.50 1021.62 1021.74 1021.86 1021.82 1021.82 1021.86 1021.86 1021.86 1021.86 1021.82 1021.82 1021.86 1021.86 1021.82 1021.74 1021.70 1021.58 1021.62 1021.46 1021.30 1021.14 1020.86 1020.30 1020.02 1019.66 1019.22 1018.90 1018.50 1018.54 1017.94 1017.70 1017.54 1017.46 1017.46
1017.34 1017.50 1017.58 1017.62 1017.74 1017.86 1018.14 1018.14 1018.34 1018.62 1018.70 1018.82 1018.98 1019.22 1019.54 1019.62 1019.74 1019.94 1020.10 1020.22 1020.46 1020.62 1020.74 1020.86 1021.06 1021.18 1021.26 1021.38 1021.54 1021.70 1021.82 1021.94 1021.98 1022.02 1022.10 1022.06 1022.10 1022.06 1022.06 1022.02 1021.98 1021.94 1021.86 1021.78 1021.70 1021.70 1021.66 1021.66 1021.62 1021.50 1021.26 1020.86 1020.14 1019.74 1019.46 1019.02 1018.74 1018.58 1018.22 1017.82 1017.54 1017.42 1017.30
1017.10 1017.30 1017.46 1017.66 1017.74 1017.70 1017.82 1017.90 1018.06 1018.30 1018.42 1018.62 1018.98 1019.10 1019.34 1019.42 1019.62 1019.86 1020.06 1020.26 1020.50 1020.62 1020.70 1020.86 1021.02 1021.14 1021.26 1021.42 1021.66 1021.74 1021.82 1021.94 1021.94 1022.02 1022.14 1022.14 1022.22 1022.26 1022.22 1022.22 1022.18 1022.10 1021.98 1021.86 1021.78 1021.70 1021.66 1021.62 1021.54 1021.46 1021.34 1021.18 1020.90 1020.30 1019.70 1019.42 1018.90 1018.50 1018.02 1018.10 1017.58 1017.30 1017.22
1016.82 1016.94 1017.06 1017.26 1017.46 1017.74 1017.82 1017.86 1017.90 1018.06 1018.34 1018.46 1018.66 1018.94 1019.10 1019.38 1019.54 1019.70 1019.94 1020.14 1020.30 1020.46 1020.58 1020.74 1020.94 1021.10 1021.26 1021.46 1021.66 1021.86 1022.02 1022.10 1022.06 1022.18 1022.26 1022.26 1022.30 1022.34 1022.34 1022.34 1022.34 1022.22 1022.10 1021.98 1021.86 1021.78 1021.66 1021.54 1021.46 1021.34 1021.26 1021.26 1021.26 1020.98 1020.30 1019.66 1019.18 1018.98 1018.26 1018.14 1018.30 1017.54 1017.30
1016.42 1016.54 1016.70 1016.98 1017.42 1017.62 1017.82 1017.94 1018.10 1018.30 1018.26 1018.22 1018.30 1018.62 1018.82 1019.14 1019.38 1019.50 1019.74 1019.98 1020.22 1020.38 1020.54 1020.74 1020.86 1021.06 1021.18 1021.46 1021.62 1021.86 1022.10 1022.10 1022.10 1022.18 1022.26 1022.34 1022.34 1022.38 1022.38 1022.38 1022.38 1022.30 1022.18 1022.10 1021.98 1021.86 1021.74 1021.62 1021.50 1021.42 1021.34 1021.22 1021.10 1021.18 1020.98 1020.58 1019.54 1019.02 1018.70 1018.30 1018.06 1017.82 1017.50
1016.50 1016.46 1016.62 1016.90 1017.26 1017.38 1017.50 1017.74 1017.86 1017.94 1018.30 1018.50 1018.50 1018.62 1018.78 1018.94 1019.10 1019.30 1019.46 1019.82 1020.10 1020.30 1020.50 1020.70 1020.94 1021.10 1021.26 1021.46 1021.66 1021.82 1022.02 1022.02 1022.06 1022.14 1022.26 1022.30 1022.30 1022.34 1022.42 1022.46 1022.42 1022.38 1022.30 1022.22 1022.14 1021.98 1021.86 1021.74 1021.62 1021.50 1021.42 1021.34 1021.30 1021.14 1020.98 1020.82 1020.50 1018.58 1018.42 1018.46 1018.26 1018.06 1017.94
1016.62 1016.54 1016.62 1016.78 1017.02 1017.14 1017.26 1017.50 1017.78 1018.02 1018.10 1018.42 1018.46 1018.66 1018.82 1018.94 1019.10 1019.26 1019.42 1019.66 1019.94 1020.14 1020.38 1020.70 1020.82 1020.98 1021.14 1021.38 1021.58 1021.74 1022.02 1022.06 1022.10 1022.22 1022.30 1022.30 1022.30 1022.34 1022.38 1022.42 1022.42 1022.38 1022.30 1022.30 1022.22 1022.10 1021.94 1021.82 1021.70 1021.58 1021.46 1021.38 1021.30 1021.22 1021.06 1020.86 1020.62 1019.42 1018.58 1018.70 1018.38 1018.18 1018.02
1016.42 1016.58 1016.66 1016.70 1016.70 1016.82 1017.10 1017.30 1017.46 1017.54 1018.02 1018.14 1018.38 1018.62 1018.78 1018.94 1019.10 1019.26 1019.50 1019.62 1019.74 1019.94 1020.22 1020.54 1020.70 1020.70 1020.90 1021.18 1021.46 1021.62 1021.78 1021.90 1021.98 1022.18 1022.30 1022.30 1022.34 1022.38 1022.42 1022.46 1022.42 1022.26 1022.22 1022.26 1022.18 1022.14 1022.02 1021.90 1021.74 1021.66 1021.54 1021.46 1021.34 1021.18 1021.18 1021.02 1020.74 1019.86 1018.62 1018.46 1018.34 1018.14 1017.98
1016.18 1016.42 1016.54 1016.66 1016.66 1016.74 1016.90 1017.02 1017.26 1017.54 1017.54 1017.86 1018.10 1018.30 1018.62 1018.90 1019.06 1019.18 1019.34 1019.50 1019.70 1019.90 1020.06 1020.22 1020.34 1020.38 1020.70 1021.02 1021.22 1021.42 1021.50 1021.66 1021.82 1021.98 1022.14 1022.18 1022.26 1022.30 1022.42 1022.46 1022.42 1022.34 1022.18 1022.14 1022.06 1022.02 1021.98 1021.90 1021.78 1021.70 1021.58 1021.46 1021.38 1021.22 1021.06 1021.10 1020.86 1020.62 1019.62 1018.66 1018.70 1018.26 1018.10
1016.30 1016.30 1016.30 1016.42 1016.50 1016.54 1016.70 1016.90 1017.10 1017.14 1017.38 1017.66 1017.98 1018.06 1018.30 1018.58 1018.82 1019.06 1019.26 1019.46 1019.62 1019.82 1019.94 1020.06 1020.14 1020.26 1020.58 1020.78 1020.98 1021.18 1021.38 1021.50 1021.62 1021.74 1021.86 1021.98 1022.02 1022.14 1022.14 1022.22 1022.22 1022.18 1022.14 1022.10 1021.98 1021.90 1021.78 1021.74 1021.66 1021.66 1021.54 1021.42 1021.34 1021.18 1021.06 1020.94 1020.90 1020.70 1020.26 1019.18 1018.82 1018.74 1018.30
1015.78 1016.18 1016.18 1016.02 1016.06 1016.18 1016.42 1016.62 1016.86 1016.98 1017.18 1017.46 1017.62 1017.98 1018.10 1018.30 1018.62 1018.82 1019.02 1019.30 1019.46 1019.66 1019.86 1019.94 1020.06 1020.26 1020.46 1020.66 1020.82 1020.98 1021.22 1021.38 1021.50 1021.62 1021.70 1021.74 1021.78 1021.86 1021.86 1021.94 1021.90 1021.90 1021.86 1021.82 1021.70 1021.70 1021.62 1021.58 1021.50 1021.42 1021.34 1021.26 1021.18 1021.06 1020.94 1020.86 1020.66 1020.54 1020.14 1019.82 1018.78 1018.86 1018.46
1015.30 1015.50 1015.70 1015.86 1015.74 1015.86 1016.06 1016.34 1016.66 1016.82 1017.18 1017.38 1017.54 1017.78 1018.10 1018.18 1018.30 1018.50 1018.70 1018.98 1019.34 1019.54 1019.70 1019.82 1019.98 1020.26 1020.46 1020.62 1020.74 1020.90 1021.10 1021.26 1021.38 1021.50 1021.58 1021.62 1021.62 1021.62 1021.66 1021.62 1021.58 1021.62 1021.58 1021.54 1021.34 1021.30 1021.30 1021.30 1021.18 1021.14 1021.06 1020.94 1020.86 1020.70 1020.66 1020.58 1020.42 1020.26 1020.10 1019.78 1019.06 1018.74 1018.74
1014.86 1014.86 1015.06 1015.42 1015.62 1015.78 1015.90 1016.18 1016.50 1016.78 1016.94 1017.18 1017.58 1017.66 1017.78 1018.10 1018.10 1018.30 1018.58 1018.90 1019.14 1019.42 1019.62 1019.78 1019.94 1020.14 1020.34 1020.58 1020.74 1020.94 1021.10 1021.26 1021.34 1021.42 1021.46 1021.50 1021.50 1021.50 1021.46 1021.42 1021.34 1021.34 1021.30 1021.26 1021.18 1021.14 1021.10 1021.06 1020.98 1020.90 1020.82 1020.70 1020.58 1020.46 1020.38 1020.26 1020.18 1020.06 1019.94 1019.70 1019.42 1018.78 1018.58
1014.58 1014.70 1014.78 1014.90 1015.02 1015.30 1015.54 1015.82 1016.10 1016.42 1016.70 1016.90 1017.26 1017.62 1017.90 1018.06 1018.38 1018.42 1018.78 1019.02 1019.18 1019.34 1019.54 1019.78 1020.02 1020.26 1020.42 1020.62 1020.78 1020.90 1020.98 1021.10 1021.26 1021.38 1021.46 1021.50 1021.46 1021.42 1021.38 1021.26 1021.18 1021.10 1021.02 1020.94 1020.90 1020.90 1020.82 1020.82 1020.78 1020.74 1020.70 1020.62 1020.46 1020.42 1020.30 1020.18 1020.10 1019.98 1019.90 1019.74 1019.34 1018.94 1018.46
1014.42 1014.58 1014.78 1015.02 1015.34 1015.46 1015.50 1015.50 1015.66 1015.98 1016.38 1016.66 1016.94 1017.26 1017.62 1017.94 1018.42 1018.62 1018.78 1018.94 1019.22 1019.42 1019.62 1019.94 1020.22 1020.42 1020.62 1020.78 1020.82 1020.82 1020.94 1021.06 1021.22 1021.38 1021.42 1021.46 1021.42 1021.34 1021.22 1021.10 1020.98 1020.86 1020.74 1020.66 1020.62 1020.54 1020.54 1020.50 1020.50 1020.50 1020.46 1020.46 1020.38 1020.38 1020.26 1020.10 1019.98 1019.86 1019.74 1019.58 1019.30 1018.86 1018.46
1014.22 1014.42 1014.58 1014.74 1014.94 1014.94 1014.86 1014.86 1015.10 1015.62 1016.06 1016.34 1016.66 1016.94 1017.34 1017.82 1018.34 1018.70 1018.94 1019.02 1019.34 1019.66 1019.82 1020.02 1020.30 1020.58 1020.74 1020.78 1020.86 1020.86 1020.98 1021.06 1021.18 1021.26 1021.34 1021.30 1021.26 1021.22 1021.10 1020.98 1020.82 1020.66 1020.50 1020.30 1020.22 1020.18 1020.14 1020.18 1020.22 1020.18 1020.10 1020.18 1020.14 1020.10 1019.98 1019.90 1019.74 1019.58 1019.34 1019.22 1018.98 1018.70 1018.38
1013.82 1014.02 1014.22 1014.34 1014.42 1014.50 1014.74 1014.82 1014.94 1015.18 1015.62 1016.10 1016.50 1016.94 1017.38 1017.82 1018.10 1018.50 1018.90 1019.22 1019.38 1019.58 1019.82 1020.10 1020.34 1020.54 1020.66 1020.70 1020.78 1020.86 1020.94 1021.02 1021.06 1021.10 1021.14 1021.14 1021.10 1021.02 1020.94 1020.82 1020.66 1020.42 1020.26 1020.14 1020.02 1019.94 1019.90 1019.86 1019.86 1019.86 1019.70 1019.78 1019.78 1019.78 1019.70 1019.62 1019.50 1019.34 1019.14 1018.90 1018.66 1018.54 1018.30
1013.66 1013.74 1013.74 1013.90 1014.06 1014.58 1014.98 1015.18 1015.30 1015.46 1015.74 1016.18 1016.58 1016.90 1017.30 1017.74 1018.22 1018.62 1018.82 1019.06 1019.30 1019.54 1019.82 1019.98 1020.10 1020.30 1020.46 1020.62 1020.74 1020.78 1020.82 1020.86 1020.94 1021.02 1021.02 1021.02 1020.94 1020.82 1020.66 1020.54 1020.46 1020.34 1020.14 1019.98 1019.82 1019.70 1019.62 1019.54 1019.46 1019.42 1019.38 1019.38 1019.38 1019.42 1019.34 1019.30 1019.14 1019.14 1019.02 1018.74 1018.38 1018.22 1017.94
1013.58 1013.54 1013.74 1014.02 1014.38 1014.70 1015.22 1015.70 1015.90 1016.22 1016.38 1016.50 1016.62 1016.78 1017.06 1017.50 1018.06 1018.50 1018.86 1019.06 1019.18 1019.42 1019.62 1019.82 1019.94 1020.06 1020.30 1020.50 1020.66 1020.74 1020.78 1020.78 1020.82 1020.82 1020.86 1020.82 1020.78 1020.66 1020.46 1020.34 1020.22 1020.14 1019.98 1019.78 1019.62 1019.42 1019.26 1019.14 1019.06 1018.98 1018.94 1018.94 1018.90 1018.90 1018.94 1018.86 1018.70 1018.66 1018.66 1018.54 1018.26 1017.94 1017.70
1013.42 1013.62 1013.82 1014.06 1014.26 1014.62 1015.02 1015.26 1015.42 1015.74 1016.22 1016.38 1016.54 1016.66 1017.02 1017.42 1017.86 1018.30 1018.58 1018.86 1019.02 1019.18 1019.30 1019.50 1019.70 1019.98 1020.22 1020.42 1020.54 1020.66 1020.70 1020.70 1020.66 1020.62 1020.62 1020.58 1020.54 1020.42 1020.30 1020.18 1020.02 1019.86 1019.74 1019.54 1019.30 1019.10 1018.94 1018.74 1018.62 1018.54 1018.46 1018.42 1018.38 1018.38 1018.38 1018.38 1018.38 1018.26 1018.14 1018.14 1017.94 1017.62 1017.50
1013.42 1013.62 1013.90 1014.10 1014.30 1014.62 1014.86 1015.10 1015.78 1016.06 1016.42 1016.86 1016.90 1017.10 1017.30 1017.46 1017.90 1018.22 1018.54 1018.70 1018.82 1018.94 1019.02 1019.26 1019.58 1019.86 1020.06 1020.22 1020.34 1020.50 1020.54 1020.54 1020.50 1020.46 1020.42 1020.34 1020.30 1020.22 1020.10 1019.98 1019.82 1019.58 1019.42 1019.34 1019.18 1018.98 1018.78 1018.54 1018.34 1018.18 1018.06 1017.98 1017.86 1017.78 1017.74 1017.74 1017.82 1017.82 1017.82 1017.58 1017.38 1017.10 1016.82
1013.38 1013.58 1013.74 1013.86 1014.06 1014.22 1014.38 1014.82 1014.90 1015.34 1015.90 1016.34 1016.70 1017.10 1017.46 1017.70 1017.98 1018.14 1018.42 1018.58 1018.62 1018.66 1018.82 1019.10 1019.46 1019.66 1019.86 1019.98 1020.10 1020.30 1020.34 1020.38 1020.34 1020.26 1020.22 1020.14 1020.10 1020.02 1019.90 1019.74 1019.58 1019.38 1019.18 1019.06 1018.90 1018.74 1018.58 1018.38 1018.14 1017.90 1017.74 1017.54 1017.42 1017.26 1017.22 1017.18 1017.18 1017.18 1017.14 1017.06 1016.86 1016.58 1016.46
1013.18 1013.38 1013.62 1013.82 1014.02 1014.14 1014.34 1014.22 1014.50 1015.26 1015.86 1016.26 1016.62 1017.02 1017.42 1017.50 1017.78 1018.06 1018.38 1018.46 1018.38 1018.50 1018.74 1019.02 1019.30 1019.46 1019.62 1019.74 1019.94 1020.10 1020.18 1020.18 1020.14 1020.06 1019.98 1019.86 1019.78 1019.70 1019.62 1019.50 1019.30 1019.10 1018.86 1018.70 1018.58 1018.50 1018.38 1018.18 1017.90 1017.66 1017.38 1017.14 1016.94 1016.78 1016.58 1016.58 1016.62 1016.58 1016.50 1016.38 1016.26 1016.10 1015.98
1012.98 1013.14 1013.34 1013.62 1013.78 1013.94 1014.10 1014.46 1014.78 1014.98 1015.66 1016.30 1016.74 1017.06 1017.26 1017.38 1017.62 1017.98 1018.30 1018.30 1018.18 1018.34 1018.62 1018.86 1019.10 1019.26 1019.38 1019.54 1019.78 1019.94 1020.02 1020.02 1019.94 1019.82 1019.66 1019.58 1019.50 1019.42 1019.34 1019.14 1018.98 1018.66 1018.50 1018.34 1018.22 1018.18 1018.10 1018.02 1017.66 1017.38 1017.14 1016.82 1016.54 1016.30 1015.94 1016.10 1016.14 1016.06 1016.02 1015.98 1015.82 1015.70 1015.58
1012.82 1013.02 1013.26 1013.38 1013.46 1013.82 1014.22 1014.58 1014.82 1014.98 1015.38 1016.22 1016.62 1016.82 1017.14 1017.46 1017.90 1018.06 1018.14 1018.34 1018.18 1018.18 1018.50 1018.74 1018.94 1019.06 1019.22 1019.42 1019.62 1019.78 1019.74 1019.74 1019.66 1019.58 1019.34 1019.30 1019.22 1019.10 1018.98 1018.74 1018.46 1018.22 1018.02 1017.86 1017.78 1017.78 1017.74 1017.74 1017.38 1017.10 1016.90 1016.62 1016.22 1015.94 1015.62 1015.78 1015.62 1015.42 1015.50 1015.42 1015.34 1015.22 1015.10
1012.58 1012.78 1012.94 1013.14 1013.46 1013.94 1014.62 1015.06 1015.30 1015.50 1015.82 1016.18 1016.46 1016.90 1017.10 1017.14 1017.70 1018.10 1018.18 1018.10 1018.18 1018.14 1018.34 1018.54 1018.78 1018.90 1019.10 1019.26 1019.42 1019.54 1019.54 1019.50 1019.42 1019.26 1019.10 1018.90 1018.86 1018.74 1018.50 1018.30 1018.02 1017.82 1017.58 1017.30 1017.30 1017.30 1017.30 1017.30 1017.02 1016.78 1016.62 1016.38 1015.94 1015.62 1015.46 1015.66 1015.34 1015.22 1015.02 1014.86 1014.66 1014.66 1014.46
1012.30 1012.50 1012.74 1013.22 1013.66 1013.90 1014.34 1014.78 1015.02 1015.30 1015.62 1015.98 1016.62 1017.02 1017.14 1017.46 1017.70 1017.90 1018.22 1018.02 1018.10 1018.26 1018.34 1018.50 1018.66 1018.86 1019.06 1019.18 1019.26 1019.30 1019.34 1019.34 1019.14 1018.86 1018.78 1018.62 1018.34 1018.18 1018.02 1017.74 1017.50 1017.34 1017.10 1016.94 1016.86 1016.82 1016.74 1016.74 1016.54 1016.18 1016.14 1015.94 1015.62 1015.10 1015.18 1015.18 1014.94 1014.94 1014.58 1014.46 1014.18 1014.06 1013.86
1012.10 1012.22 1012.38 1012.90 1013.50 1013.86 1013.90 1013.98 1014.46 1014.78 1015.46 1016.34 1016.66 1017.02 1017.14 1017.42 1017.46 1017.58 1017.94 1018.10 1018.26 1018.46 1018.58 1018.50 1018.58 1018.82 1018.90 1019.02 1019.06 1019.10 1019.06 1019.02 1018.78 1018.58 1018.38 1018.26 1018.06 1017.74 1017.46 1017.26 1016.98 1016.78 1016.62 1016.42 1016.30 1016.18 1016.10 1016.02 1015.98 1015.70 1015.42 1015.22 1014.94 1014.62 1014.78 1014.70 1014.50 1014.66 1014.38 1014.18 1013.98 1013.78 1013.58
1012.26 1012.62 1013.10 1013.42 1013.66 1013.86 1013.90 1014.34 1014.86 1015.26 1015.90 1016.18 1016.30 1016.46 1016.90 1017.06 1017.18 1017.50 1017.98 1018.30 1018.46 1018.46 1018.78 1018.82 1018.78 1018.78 1018.90 1018.94 1018.94 1018.82 1018.78 1018.62 1018.50 1018.34 1018.10 1017.90 1017.62 1017.30 1017.06 1016.74 1016.54 1016.30 1016.22 1016.06 1015.90 1015.78 1015.66 1015.58 1015.50 1015.30 1014.78 1014.62 1014.38 1014.42 1014.30 1014.10 1014.06 1014.06 1013.90 1013.66 1013.42 1013.14 1012.98
1012.38 1012.74 1013.22 1013.66 1013.90 1014.22 1014.62 1014.90 1015.38 1015.82 1015.94 1015.98 1016.06 1016.34 1016.78 1017.18 1017.38 1017.54 1017.94 1018.26 1018.42 1018.46 1018.70 1018.90 1018.90 1018.86 1018.90 1018.90 1018.78 1018.62 1018.46 1018.38 1018.26 1018.18 1017.94 1017.54 1017.34 1016.94 1016.58 1016.38 1016.10 1015.90 1015.82 1015.66 1015.50 1015.34 1015.18 1015.02 1014.90 1014.58 1014.34 1014.18 1014.10 1014.02 1013.98 1013.78 1013.70 1013.58 1013.42 1013.22 1013.02 1012.66 1012.46
1012.50 1012.82 1013.06 1013.30 1013.86 1014.82 1015.38 1015.74 1016.14 1016.18 1016.02 1016.06 1016.30 1016.58 1017.10 1017.34 1017.46 1017.54 1017.62 1017.74 1017.98 1018.30 1018.66 1018.74 1018.74 1018.86 1018.94 1018.78 1018.54 1018.30 1018.18 1018.06 1017.98 1017.82 1017.62 1017.22 1016.70 1016.46 1016.14 1015.86 1015.66 1015.54 1015.42 1015.26 1015.02 1014.74 1014.50 1014.38 1014.10 1013.78 1013.66 1013.46 1013.38 1013.30 1013.26 1013.02 1012.98 1012.86 1012.74 1012.54 1012.38 1012.06 1011.86
Wind_Speed
6 7 5 4 3 4 4 3 3 2 3 3 4 4 4 5 6 6 6 7 7 6 6 6 6 5 5 6 6 6 6 6 6 5 5 5 4 3 4 4 1 3 3 3 4 3 3 5 7 4 1 1 3 2 4 3 2 4 5 5 5 6 5
2 2 3 3 5 3 5 2 3 2 4 3 3 4 4 5 5 6 6 7 7 6 5 6 6 6 7 7 7 8 7 7 6 5 5 4 4 4 3 4 3 4 2 3 3 4 2 3 5 4 5 3 3 3 1 1 2 3 4 5 5 6 5
2 2 3 4 4 3 5 3 3 3 4 4 4 4 5 5 6 6 7 7 6 6 5 6 6 7 6 7 7 7 6 7 6 6 6 4 4 4 5 4 4 3 4 3 3 5 3 5 7 5 5 7 8 4 4 5 5 4 3 3 4 5 5
4 4 4 3 3 3 5 4 4 3 3 5 4 4 4 4 5 5 6 6 5 5 6 6 6 6 6 6 6 7 7 7 6 6 6 5 5 5 6 5 5 5 4 3 4 3 3 3 5 4 5 5 6 9 4 3 5 5 5 4 5 5 5
7 6 7 7 6 6 5 5 3 3 4 4 4 5 3 4 5 5 5 5 6 6 6 6 5 5 5 6 6 6 6 5 5 6 5 6 5 5 5 4 4 4 4 5 4 4 4 4 4 6 5 5 6 5 5 6 6 6 5 4 4 5 5
7 7 7 6 6 7 6 5 5 5 4 5 4 5 4 4 5 6 5 6 5 5 5 6 5 6 6 6 6 6 6 6 5 6 6 5 5 5 4 4 4 4 4 3 3 4 5 5 4 4 5 4 6 7 6 4 4 3 5 6 4 4 4
7 7 6 7 7 6 7 7 7 7 6 6 6 6 6 5 3 5 5 5 5 5 5 6 6 5 6 6 6 6 6 4 5 6 5 5 5 5 4 5 4 4 3 3 4 4 4 4 4 5 6 5 6 7 5 3 2 3 3 2 2 2 3
8 7 7 6 7 7 5 6 6 5 7 6 7 5 5 5 5 5 5 6 5 5 5 6 6 6 6 6 5 5 4 4 5 5 4 5 4 5 5 4 4 4 3 3 3 3 3 3 3 4 5 7 5 4 6 3 5 5 7 2 3 4 5
7 6 5 4 5 6 7 7 7 7 7 6 5 5 4 6 6 5 5 6 5 5 6 6 6 6 6 6 5 5 5 3 5 6 4 4 4 4 4 3 4 4 4 3 3 2 2 2 2 2 3 4 6 7 5 7 5 5 3 4 3 5 5
8 9 9 8 8 6 6 6 7 7 5 6 7 5 6 5 6 6 6 5 5 5 6 6 6 6 6 5 5 5 5 4 4 5 4 5 4 3 3 4 3 3 4 4 4 3 3 3 2 2 2 2 3 5 6 6 6 6 3 0 5 3 1
10 9 8 8 7 7 5 5 3 5 6 6 7 6 7 7 6 6 7 6 5 5 6 5 6 6 6 6 5 6 4 4 4 4 4 4 4 3 3 4 3 3 4 4 4 4 4 4 3 3 3 2 2 2 3 7 9 5 8 4 5 4 4
7 7 6 6 6 7 8 7 7 6 4 3 5 5 6 6 7 6 7 6 5 6 5 6 5 6 6 6 5 5 4 5 5 5 4 4 4 4 4 5 4 4 4 4 4 4 4 4 4 3 3 2 3 3 4 4 9 5 2 5 4 5 8
6 6 6 7 8 8 8 8 7 5 7 5 5 5 6 6 6 7 6 7 6 6 7 5 6 6 6 6 5 5 4 5 5 4 3 4 3 4 4 5 4 4 4 4 4 4 4 4 4 4 4 3 3 3 4 5 7 12 5 6 7 7 7
8 6 5 7 8 8 7 7 8 7 6 6 6 6 6 7 6 7 7 6 7 6 7 6 5 6 6 6 5 5 4 4 3 2 1 3 3 4 4 4 5 5 5 4 4 4 4 5 4 4 3 3 4 3 4 5 7 10 10 5 7 7 6
7 6 7 7 8 7 7 8 7 7 8 7 8 8 7 6 6 6 6 6 6 6 6 6 5 6 6 5 4 3 3 3 2 2 1 2 3 2 3 4 5 5 5 5 4 4 4 5 4 4 4 4 4 4 3 5 6 7 13 8 7 6 7
6 7 9 8 8 8 8 7 7 9 8 8 7 8 8 8 7 6 6 6 6 5 6 6 5 6 5 4 2 2 2 2 1 1 2 3 3 2 3 3 5 5 4 4 4 4 4 4 4 4 5 4 4 4 4 5 6 8 10 11 7 8 7
9 9 10 9 10 9 8 8 8 8 8 8 9 7 8 9 8 7 6 5 5 5 5 5 6 5 4 3 1 1 1 1 1 2 2 3 3 3 4 4 4 5 5 5 4 4 4 4 4 4 5 4 5 6 4 5 6 7 8 11 9 8 7
10 11 11 9 11 10 9 9 8 9 8 8 7 8 6 7 8 7 7 7 6 6 6 6 5 4 4 4 2 1 1 2 2 3 3 4 3 4 4 4 5 4 5 5 5 4 3 6 6 7 8 7 7 8 6 6 7 7 8 10 11 7 7
11 13 12 10 10 9 9 9 9 7 9 9 8 7 9 6 7 7 7 6 6 6 6 5 5 3 3 3 2 1 1 2 3 4 4 5 5 5 5 6 5 5 4 5 5 5 4 6 6 7 9 9 8 8 8 7 6 7 8 10 11 13 8
11 11 11 12 11 10 9 9 10 10 9 10 10 8 7 7 4 7 6 7 7 6 6 5 4 3 3 1 1 1 2 3 4 4 4 5 6 6 6 6 6 6 6 6 6 5 5 5 5 6 7 7 8 9 10 10 9 10 10 11 11 11 11
9 9 8 6 5 8 9 10 11 10 10 10 10 10 9 8 6 6 7 7 6 5 5 4 3 3 2 1 1 2 2 3 4 4 5 6 6 6 7 7 7 7 7 7 7 7 6 6 4 6 5 6 7 7 8 8 8 8 9 10 11 11 10
8 8 8 9 10 11 12 12 11 11 10 10 9 10 9 9 8 7 6 6 6 4 5 4 3 3 2 1 1 1 3 3 4 5 5 6 6 6 7 7 7 8 8 10 12 11 10 9 6 6 6 5 6 7 7 7 8 8 9 10 11 10 11
9 10 11 12 12 12 11 10 11 12 11 10 9 9 9 8 9 9 7 6 6 5 4 4 4 5 3 1 1 1 2 3 4 4 5 6 6 7 7 7 7 13 14 14 14 13 13 13 13 10 8 6 7 7 8 8 8 9 10 11 11 10 11
8 11 11 11 11 7 5 6 7 8 9 9 9 9 9 9 8 7 8 7 7 5 5 4 6 4 2 2 2 3 3 4 4 5 5 6 7 6 6 7 7 8 10 11 11 13 13 14 14 15 16 15 12 9 8 9 9 8 10 11 11 11 12
8 10 9 8 6 7 7 6 7 6 7 8 8 9 10 10 9 8 7 7 7 6 5 6 7 4 3 4 3 3 3 4 4 5 5 6 7 6 7 7 6 5 6 8 9 9 11 14 15 16 16 16 16 17 16 12 10 8 8 10 11 12 12
8 7 7 7 8 9 10 11 12 12 10 8 8 10 10 10 9 8 9 9 8 7 6 7 7 5 4 5 5 3 4 4 4 5 6 7 7 8 6 6 6 6 6 12 12 10 9 9 12 15 16 17 18 17 16 17 17 12 8 10 11 13 12
7 6 6 7 9 9 10 9 5 5 8 6 8 8 9 10 9 9 9 9 8 7 6 6 7 5 5 5 5 3 3 4 5 5 6 7 6 7 7 7 7 7 7 7 8 9 9 9 9 9 10 9 9 12 15 17 17 19 16 11 11 13 11
6 6 8 9 10 12 12 11 13 11 10 10 10 10 9 9 8 8 8 7 7 6 5 7 7 6 5 4 5 3 4 4 4 5 6 7 7 7 8 8 8 8 9 7 7 9 9 9 9 9 10 10 10 10 10 10 11 8 9 9 11 12 12
7 8 9 9 10 10 11 14 13 10 8 7 7 8 7 8 9 8 7 7 7 6 5 6 6 6 4 4 3 3 4 4 5 6 7 7 7 7 7 8 8 9 11 12 12 14 13 12 12 12 12 12 11 11 11 10 14 14 13 11 10 12 10
8 9 10 11 12 12 12 9 9 10 11 9 9 9 9 8 8 8 7 6 7 6 4 5 6 6 3 3 2 4 4 5 5 6 7 6 7 7 7 8 8 11 11 12 12 14 14 14 13 12 12 13 13 13 13 8 12 16 17 18 20 20 20
8 9 9 12 12 10 6 6 9 9 11 10 9 9 7 6 6 6 7 6 6 6 5 5 6 4 3 4 4 4 5 5 6 7 7 7 6 6 9 16 15 12 12 12 13 13 13 12 13 12 14 16 18 17 15 11 10 10 15 19 20 21 20
9 10 11 10 10 10 9 9 7 6 8 8 8 7 7 7 5 4 6 7 6 6 5 4 5 4 4 5 5 4 5 5 6 7 6 7 7 7 7 9 16 15 14 14 16 16 16 14 16 16 16 17 18 18 15 13 13 13 13 13 13 14 14
10 10 10 9 9 10 10 10 11 10 9 8 8 6 6 7 8 7 5 5 5 5 5 4 3 5 5 7 7 5 4 5 7 8 7 7 8 6 7 8 10 14 16 17 17 17 16 17 16 15 15 17 18 20 14 14 14 12 14 13 13 13 15
10 11 11 11 10 8 9 11 10 10 9 7 7 7 7 6 6 5 4 4 4 4 4 4 5 6 6 7 8 6 5 6 7 7 7 7 8 10 8 8 8 12 16 16 17 17 18 18 18 14 13 15 18 19 16 16 17 17 17 16 16 15 14
4 6 6 7 10 10 9 9 8 8 7 8 8 7 5 5 5 3 3 3 4 5 3 4 4 6 7 8 8 9 6 6 7 8 9 9 9 9 9 9 9 12 15 16 16 17 18 18 18 15 16 19 21 20 19 15 16 15 15 15 14 15 14
9 9 9 7 7 6 6 7 6 6 8 7 7 7 6 5 4 4 3 4 4 5 4 3 6 6 7 9 9 9 10 9 10 8 10 11 10 12 10 11 12 16 17 18 20 21 23 24 22 19 22 22 23 23 21 15 14 15 15 15 15 15 15
9 8 10 11 10 8 6 6 5 3 6 6 6 5 4 4 3 3 4 5 5 4 3 3 4 6 7 9 10 10 11 11 11 10 10 9 11 12 12 12 14 20 22 23 24 23 22 22 18 22 23 24 24 23 17 15 14 14 14 14 15 16 16
Wind_Direction
172 191 181 165 147 133 122 118 85 47 64 76 86 72 73 80 83 76 77 74 71 65 66 63 63 50 54 41 41 44 44 42 48 68 66 37 56 26 344 25 345 243 226 234 244 228 268 289 304 318 219 302 351 290 258 279 259 230 234 225 227 223 219
199 165 125 116 133 124 116 98 95 63 69 59 71 93 77 81 84 91 84 82 81 75 75 73 62 55 54 52 46 44 44 38 37 43 59 43 37 36 12 15 13 17 299 227 204 221 246 291 288 266 310 309 312 270 277 224 253 239 220 214 221 229 219
159 82 106 114 124 128 136 140 113 88 81 67 55 76 83 81 89 90 89 92 94 89 81 81 76 66 59 59 55 58 53 55 36 44 55 45 43 32 36 31 41 360 10 3 23 5 285 250 265 285 300 314 312 290 298 300 277 260 231 214 212 221 225
180 156 131 121 116 119 145 161 143 127 97 102 94 70 88 102 94 95 98 97 93 95 94 85 76 76 68 69 64 60 56 59 47 52 50 45 45 43 38 38 38 36 29 25 356 342 325 320 327 320 327 321 306 303 303 309 297 280 265 242 227 220 220
174 178 174 174 178 171 167 163 157 119 106 101 98 108 95 95 101 95 97 95 92 89 86 90 92 88 85 77 69 69 67 61 58 59 56 49 43 47 41 32 41 39 37 26 357 339 344 331 315 305 303 311 297 271 306 307 278 274 269 255 243 226 208
185 184 182 180 181 174 167 146 148 161 145 123 137 130 150 141 125 122 122 115 108 104 108 95 88 82 80 75 72 69 64 59 61 66 60 51 49 47 24 23 33 35 33 11 6 360 351 336 316 315 310 310 287 297 297 275 287 266 246 251 248 222 214
188 187 189 184 188 181 168 169 172 173 172 173 162 170 172 162 148 141 129 117 114 118 112 106 101 96 90 84 82 79 75 72 70 72 72 64 52 39 30 36 26 21 5 0 9 19 14 4 356 342 329 310 300 290 288 299 281 313 318 302 277 265 242
185 186 194 192 180 176 181 173 179 167 171 179 170 175 156 148 141 124 123 115 111 106 102 95 91 86 83 75 73 77 75 77 75 75 68 68 52 41 40 36 19 10 348 349 359 15 9 8 348 340 335 323 303 289 299 280 292 238 265 299 282 275 254
188 182 181 194 197 187 178 179 182 182 185 163 158 147 168 148 145 131 118 120 126 121 109 109 105 95 89 83 66 62 52 31 59 55 49 58 50 42 46 30 29 352 333 332 341 344 333 317 318 334 339 336 321 302 309 298 285 277 268 295 298 254 257
185 184 188 192 189 192 183 187 179 191 172 162 161 162 157 154 147 139 127 123 111 108 98 100 103 100 95 90 85 77 67 27 52 48 39 39 16 13 36 26 4 333 319 322 329 325 317 315 317 314 341 325 336 310 306 288 282 289 297 329 312 300 343
192 196 189 185 180 177 188 185 166 154 191 184 165 166 155 152 151 140 128 121 117 104 109 106 98 90 82 70 62 68 82 79 56 39 29 26 13 0 7 351 350 330 310 317 311 309 310 314 310 320 319 319 304 282 287 291 288 281 288 273 249 282 358
207 200 194 177 172 184 188 184 182 188 174 170 156 153 152 149 145 140 132 129 124 121 113 101 99 91 91 83 69 72 52 59 59 36 5 8 350 4 355 342 333 322 312 307 306 303 304 304 306 305 309 304 296 268 269 276 287 267 263 305 319 324 320
219 204 193 178 184 197 195 182 177 167 185 174 174 161 156 153 149 140 142 139 140 135 115 107 110 113 100 99 107 88 91 91 76 53 1 346 340 348 341 335 321 308 308 308 304 301 297 295 285 289 295 297 286 276 282 281 267 278 271 283 293 294 302
214 211 199 193 194 199 190 184 183 178 153 178 162 162 160 158 152 147 148 154 145 134 121 127 135 118 101 105 107 114 116 103 82 89 70 337 333 334 333 324 309 298 301 297 290 296 294 288 293 284 276 278 280 287 292 292 285 288 290 265 281 294 303
203 198 202 202 203 197 191 188 178 159 176 174 167 164 159 153 149 148 145 139 123 120 124 128 130 102 103 100 94 114 103 95 95 82 104 325 317 303 310 310 296 287 285 279 286 288 281 285 285 287 280 269 269 272 268 296 292 294 293 304 293 295 305
212 204 200 202 204 199 195 186 175 174 173 167 170 161 156 153 153 147 135 135 127 123 127 121 113 104 105 108 104 96 114 112 107 25 4 287 285 290 299 294 292 284 263 261 262 265 264 266 269 271 276 270 265 260 259 263 281 283 289 292 305 302 294
196 205 209 204 201 198 189 184 178 177 172 163 161 162 152 150 146 141 135 131 124 127 123 120 112 114 128 135 139 185 6 70 100 258 262 279 282 282 279 282 273 280 275 269 266 250 248 246 256 267 266 258 263 274 260 251 251 270 284 290 293 294 309
200 200 208 207 203 191 185 180 178 174 162 166 158 147 149 145 140 141 141 142 138 136 140 131 125 130 144 148 156 172 210 277 292 283 276 271 274 272 270 264 268 271 275 283 289 283 271 288 293 299 297 294 289 285 279 273 271 270 277 283 293 292 297
204 204 201 200 198 191 181 175 173 171 166 159 156 155 151 157 148 148 143 148 146 144 142 137 143 164 164 139 136 148 168 277 294 293 292 287 279 270 267 266 265 258 261 275 283 288 292 290 292 289 292 292 294 295 290 283 261 258 272 280 287 293 288
213 207 201 197 193 186 177 172 169 170 171 158 156 153 149 142 147 142 150 143 148 151 148 145 147 150 149 122 120 91 354 316 301 300 286 282 281 276 272 270 269 262 261 259 267 270 275 277 278 286 293 294 293 291 286 284 284 283 283 283 281 279 286
211 209 205 201 181 172 181 179 176 168 159 159 155 152 152 152 157 148 152 151 155 146 137 129 133 121 104 120 98 16 341 312 303 297 288 282 280 278 274 274 269 266 259 254 253 260 257 268 260 267 266 274 278 280 279 279 277 273 273 276 273 280 278
201 197 196 189 189 194 189 182 170 160 162 159 157 154 151 145 143 142 144 143 134 123 129 141 134 135 151 159 137 261 291 285 281 281 280 274 274 271 272 270 270 264 263 264 265 267 267 267 273 271 261 257 264 266 268 269 272 270 272 273 274 272 277
195 194 194 197 199 200 193 177 165 163 163 158 152 146 142 145 146 149 144 130 128 129 127 127 152 157 148 136 197 214 241 258 264 270 280 286 279 272 268 268 269 270 272 274 273 272 271 269 264 262 267 259 260 263 263 267 266 269 274 273 273 277 276
199 200 201 201 204 198 189 163 158 152 147 148 147 146 141 139 141 144 143 141 138 134 143 161 158 148 163 210 194 220 230 262 264 267 267 272 277 275 271 264 263 270 272 275 275 271 270 266 264 263 261 259 257 257 266 260 257 256 265 267 269 267 267
206 209 200 194 150 138 139 140 137 139 150 151 150 144 143 146 145 144 141 141 143 152 162 172 164 169 203 248 254 238 236 245 257 260 260 264 266 271 274 276 271 269 267 267 268 267 263 260 260 260 259 258 257 253 247 249 261 259 252 263 263 260 265
214 204 189 167 158 151 154 162 168 164 172 160 145 146 147 140 143 143 144 150 156 165 162 168 166 185 226 252 269 265 249 246 255 261 267 268 269 272 274 276 277 267 267 267 272 271 270 269 265 263 262 262 258 253 250 246 244 247 257 255 259 261 253
211 194 172 162 159 162 167 160 124 120 134 144 146 140 140 140 143 149 156 157 162 164 155 164 175 201 228 254 275 284 256 263 262 263 269 271 273 276 276 278 280 280 271 270 268 270 269 268 270 269 266 260 257 255 253 248 245 246 245 248 252 258 255
200 178 175 171 169 173 170 157 163 167 155 154 149 147 151 149 157 159 160 158 154 157 162 172 183 208 234 255 285 303 274 269 269 269 268 269 268 272 275 274 274 275 278 271 266 266 270 270 269 269 266 263 256 252 249 249 249 240 242 239 249 253 257
187 174 173 172 172 172 174 176 163 149 143 137 131 134 149 150 156 160 161 156 149 158 180 186 202 218 233 269 301 297 283 275 274 269 270 270 271 269 269 269 271 272 277 278 274 269 270 276 277 276 272 270 268 262 257 249 251 249 250 251 249 253 253
184 178 172 170 176 179 179 173 149 141 137 143 146 155 158 166 160 153 158 161 153 163 187 212 209 217 234 276 314 287 276 271 263 269 267 271 270 268 266 265 265 274 273 274 272 269 269 271 277 274 273 275 273 272 267 255 248 248 250 252 254 256 257
184 178 175 179 183 179 159 133 140 140 140 147 155 162 158 132 134 150 150 171 172 169 200 223 206 213 231 265 264 266 270 270 274 272 275 265 263 258 258 265 270 274 273 273 272 266 268 273 279 277 280 283 282 280 278 275 267 255 244 248 251 253 254
184 181 181 180 166 148 140 144 134 125 131 138 146 142 141 135 142 164 180 178 175 170 199 223 209 214 236 261 269 267 270 270 278 277 280 282 265 254 259 257 273 273 272 270 269 266 267 268 277 278 279 280 279 277 277 280 272 272 266 259 251 250 252
186 180 174 160 154 145 138 135 139 142 143 138 146 153 137 149 165 184 194 171 188 187 194 234 220 221 232 256 264 266 264 279 282 290 288 286 291 273 266 271 271 264 264 266 266 266 265 262 270 273 272 274 276 276 279 274 271 273 273 268 265 257 258
187 185 174 162 154 148 148 141 139 142 140 135 142 146 148 155 164 180 191 198 194 219 205 223 242 228 242 257 270 279 275 270 282 286 295 291 291 294 288 278 279 274 273 275 276 276 273 269 266 264 262 266 268 273 275 272 274 269 269 270 268 267 265
107 107 100 126 146 148 138 129 143 141 140 145 146 146 140 147 161 187 213 221 224 233 234 231 262 269 259 264 274 285 287 280 285 296 295 297 295 290 288 288 288 287 290 292 292 290 286 282 277 274 271 269 269 267 267 267 270 270 268 268 266 264 261
134 130 129 126 110 87 97 121 123 135 135 133 132 137 148 150 161 193 241 264 253 255 243 240 248 259 270 275 280 289 289 292 294 291 298 298 296 294 293 293 293 296 296 293 288 285 282 279 277 274 272 270 270 269 269 268 267 266 266 265 263 262 260
127 128 131 122 112 99 88 90 91 107 131 131 129 128 141 145 155 193 233 265 269 251 222 236 263 256 266 274 286 295 299 298 300 302 299 291 299 300 302 303 303 302 296 291 287 283 281 277 275 272 269 267 264 262 261 259 255 254 256 257 254 255 256